Weather observations for the past three days for
Jackson County Airport
Imperial (Metric)
Date Time (edt) Wind (mph) Vis. (mi.) Weather Sky Cond. Temperature (ºF) Relative Humidity Wind Chill (°F) Heat Index (°F) Pressure Precipitation (in)
Air Dwpt 6 hour altimeter (in) sea level (mb) 1 hr 3 hr 6 hr
Max. Min.
22 13:05 Calm 4.00 Fair with Haze CLR 81.5 63.1 54% 83 30.23 0.0
22 12:45 Calm 10.00 Fair CLR 79.9 62.2 55% 81 30.24 0.0
22 12:25 Calm 10.00 Fair CLR 79.2 62.4 57% 81 30.25 0.0
22 12:05 Calm 10.00 Fair CLR 78.8 64.8 62% 81 30.25 0.0
22 11:45 Calm 10.00 Fair CLR 77.4 64.2 64% 79 30.26 0.0
22 11:25 Calm 10.00 Fair CLR 75.9 61.9 62% 78 30.26 0.0
22 11:05 Calm 10.00 Fair CLR 74.7 64.8 71% 30.26 0.0
22 10:45 Calm 10.00 Fair CLR 72.9 63.3 72% 30.26 0.0
22 10:25 SE 3 10.00 Fair CLR 72.7 65.3 78% 30.28 0.0
22 10:05 Calm 10.00 Fair CLR 70.3 63.5 79% 30.28 0.0
22 09:45 Calm 10.00 Fair CLR 69.3 63 80% 30.28 0.0
22 09:25 Calm 10.00 Fair CLR 68.2 61.7 80% 30.29 0.0
22 09:05 Calm 10.00 Fair CLR 67.1 61.9 83% 30.29 0.0
22 08:45 Calm 10.00 Fair CLR 65.1 61.7 89% 30.29 0.0
22 08:25 Calm 10.00 Fair CLR 64.6 61.7 90% 30.3 0.0
22 08:05 Calm 10.00 Fair CLR 63.7 61.3 92% 30.3 0.0
22 07:45 Calm 10.00 Partly Cloudy SCT002 62.2 60.6 66.4 60.1 94% 30.29 0.0
22 07:25 Calm 0.25 Light Drizzle Fog OVC002 60.3 59.7 98% 30.29 0.0
22 07:05 Calm 7.00 Fair CLR 60.8 59.7 96% 30.29 0.0
22 06:45 Calm 10.00 Fair CLR 60.6 59.4 96% 30.29 0.0
22 06:25 Calm 10.00 Fair CLR 61.3 59.4 93% 30.29 0.0
22 06:05 SE 5 10.00 Fair CLR 61.3 59.5 94% 30.3 0.0
22 05:45 Calm 7.00 Fair CLR 62.8 61 94% 30.29 0.0
22 05:25 Calm 5.00 Fog/Mist CLR 61.5 60.6 97% 30.29 0.0
22 05:05 Calm 2.00 Light Rain Fog/Mist CLR 61.7 60.4 96% 30.29 0.0
22 04:45 Calm 0.75 Light Rain Fog/Mist BKN002 61.9 61.3 98% 30.29 0.0
22 04:25 Calm 7.00 Fair CLR 63.3 61 92% 30.28 0.0
22 04:05 SE 3 7.00 Fair CLR 62.6 61 94% 30.29 0.0
22 03:45 Calm 10.00 Fair CLR 63.1 61 93% 30.29 0.0
22 03:25 Calm 10.00 Light Drizzle CLR 63.3 61.2 93% 30.29 0.0
22 03:05 SE 6 3.00 Rain Fog/Mist CLR 63.7 61.7 93% 30.29 0.0
22 02:45 SE 3 5.00 Fog/Mist CLR 64 61.9 93% 30.29 0.0
22 02:25 SE 5 2.00 Light Drizzle Fog/Mist SCT085 64.8 62.2 92% 30.29 0.0
22 02:05 SE 7 3.50 Fog/Mist BKN085 65.5 62.8 91% 30.3 0.0
22 01:45 SE 7 0.75 Light Drizzle Fog/Mist OVC085 66 63 77.2 65.8 90% 30.3 0.0
22 01:25 SE 7 3.50 Light Rain Fog/Mist CLR 66.4 63 89% 30.3 0.0
22 01:05 SE 7 2.50 Light Drizzle Fog/Mist CLR 66.7 62.8 87% 30.31 0.0
22 00:45 SE 8 0.75 Light Drizzle VV005 67.5 63 86% 30.3 0.0
22 00:25 SE 5 1.00 Light Rain BKN085 68.2 63.1 84% 30.31 0.0
22 00:05 SE 5 1.75 Overcast with Haze OVC085 68.7 63.5 84% 30.31 0.0
21 23:45 SE 5 2.00 Overcast with Haze OVC075 69.1 63.5 83% 30.31 0.0
21 23:25 SE 5 5.00 Mostly Cloudy with Haze BKN075 70.7 63.1 77% 30.31 0.0
21 23:05 SE 5 2.00 Fair with Haze CLR 70.9 63.3 77% 30.3 0.0
21 22:45 SE 5 3.00 Partly Cloudy with Haze SCT080 71.4 63.5 76% 30.3 0.0
21 22:25 SE 6 1.50 Partly Cloudy with Haze SCT080 72 63.7 75% 30.29 0.0
21 22:05 SE 5 1.75 Partly Cloudy with Haze SCT044 72.7 63.7 73% 30.29 0.0
21 21:45 SE 5 1.25 Mostly Cloudy with Haze SCT046 BKN050 BKN080 73.4 63.7 72% 30.29 0.0
21 21:25 SE 3 2.50 Mostly Cloudy with Haze SCT043 SCT050 BKN055 74.1 63.9 70% 30.28 0.0
21 21:05 SE 3 10.00 Mostly Cloudy SCT043 SCT050 BKN075 74.7 63.7 69% 30.28 0.0
21 20:45 S 3 10.00 Overcast BKN048 BKN050 OVC075 75.6 63.7 67% 77 30.28 0.0
21 20:25 S 6 10.00 Mostly Cloudy BKN050 BKN085 76.1 63.5 65% 78 30.28 0.0
21 20:05 S 6 10.00 Overcast SCT050 BKN070 OVC085 76.6 63.3 64% 78 30.27 0.0
21 19:45 S 7 10.00 Overcast BKN050 OVC070 77.2 62.8 84.6 77.2 61% 79 30.26 0.0
21 19:25 S 6 10.00 Overcast BKN046 BKN050 OVC080 77.5 63.7 62% 79 30.27 0.0
21 19:05 S 6 10.00 Overcast SCT048 BKN060 OVC080 78.4 63.7 61% 80 30.26 0.0
21 18:45 S 12 10.00 Mostly Cloudy SCT060 BKN090 81 65.1 59% 83 30.26 0.0
21 18:25 SE 3 10.00 Partly Cloudy SCT060 SCT090 81.1 64.8 58% 83 30.26 0.0
21 18:05 Calm 10.00 Fair CLR 80.8 63.9 56% 82 30.27 0.0
21 17:45 Calm 10.00 Partly Cloudy SCT050 SCT085 79.7 62.4 56% 81 30.28 0.0
21 17:25 Calm 10.00 Mostly Cloudy SCT050 BKN060 BKN085 79.9 64.6 60% 82 30.28 0.0
21 17:05 Calm 10.00 Mostly Cloudy BKN060 BKN065 BKN085 83.8 64.2 52% 85 30.28 0.0
21 16:45 Calm 10.00 Partly Cloudy SCT050 SCT070 SCT085 82.9 61.3 48% 84 30.28 0.0
21 16:25 Calm 10.00 Partly Cloudy SCT050 SCT090 81.3 60.4 49% 82 30.29 0.0
21 16:05 Calm 10.00 Mostly Cloudy BKN050 BKN090 79.7 61.9 55% 81 30.29 0.0
21 15:45 Calm 10.00 Mostly Cloudy BKN050 83.8 63.9 51% 85 30.29 0.0
21 15:25 SW 3 10.00 Partly Cloudy SCT050 82 60.8 49% 83 30.3 0.0
21 15:05 Calm 10.00 Mostly Cloudy BKN050 81.9 62.1 51% 83 30.31 0.0
21 14:45 SE 3 10.00 Partly Cloudy SCT050 82.9 61.2 48% 83 30.31 0.0
21 14:20 SW 3 10.00 Partly Cloudy SCT070 81.3 60.1 49% 82 30.32 0.0
21 14:05 Calm 10.00 Partly Cloudy SCT046 81 61 51% 82 30.32 0.0
21 13:45 Calm 10.00 Partly Cloudy BKN044 SCT120 79.2 60.8 81 61.3 53% 80 30.34 0.0
21 13:25 W 3 10.00 Mostly Cloudy BKN042 80.1 61.9 54% 81 30.34 0.0
21 13:05 Calm 10.00 Partly Cloudy SCT040 79.2 63.3 58% 81 30.35 0.0
21 12:45 Calm 10.00 Partly Cloudy SCT036 78.8 63.3 59% 80 30.36 0.0
21 12:25 Calm 10.00 Mostly Cloudy BKN034 BKN040 77 62.8 62% 79 30.36 0.0
21 12:05 Calm 10.00 Partly Cloudy SCT032 76.3 63.7 65% 78 30.37 0.0
21 11:45 Calm 10.00 Fair CLR 76.1 62.8 63% 78 30.37 0.0
21 11:25 SW 3 10.00 Fair CLR 75 63.5 68% 77 30.38 0.0
21 11:05 Calm 10.00 Fair CLR 73.6 63.7 71% 30.38 0.0
21 10:45 Calm 10.00 Fair CLR 72.9 62.4 70% 30.38 0.0
21 10:25 Calm 10.00 Fair CLR 70.7 63.5 78% 30.39 0.0
21 10:05 Calm 10.00 Fair CLR 69.8 63.1 80% 30.39 0.0
21 09:45 Calm 10.00 Fair CLR 68.4 62.4 81% 30.39 0.0
21 09:25 Calm 10.00 Partly Cloudy SCT048 67.6 61.9 82% 30.39 0.0
21 09:05 Calm 10.00 Mostly Cloudy BKN046 65.8 61.5 86% 30.39 0.0
21 08:45 Calm 10.00 Fair CLR 64.8 61.5 89% 30.39 0.0
21 08:25 Calm 10.00 Fair CLR 63.5 61.2 92% 30.39 0.0
21 08:05 Calm 10.00 Fair CLR 62.1 60.4 94% 30.39 0.0
21 07:45 Calm 10.00 Fair CLR 61.3 60.3 63.5 59.4 96% 30.39 0.0
21 07:25 Calm 2.50 Light Rain Fog/Mist CLR 60.1 59.4 97% 30.39 0.0
21 07:05 E 3 0.25 Light Rain Fog BKN001 BKN007 59.7 59.4 99% 30.39 0.0
21 06:45 SE 3 0.50 Light Rain Fog OVC001 59.4 59 99% 30.39 0.0
21 06:25 S 3 0.15 Fog OVC001 59.7 59.4 99% 30.39 0.0
21 06:05 Calm 0.75 Fog/Mist BKN001 BKN004 60.3 59.7 98% 30.38 0.0
21 05:45 Calm 3.00 Fog/Mist SCT004 60.4 59.9 98% 30.38 0.0
21 05:25 Calm 5.00 Fog/Mist CLR 61.2 60.3 97% 30.37 0.0
21 05:05 S 5 0.25 Fog OVC004 60.6 60.4 99% 30.37 0.0
21 04:40 SE 3 0.15 Light Drizzle Fog OVC002 60.8 60.4 99% 30.37 0.0
21 04:25 Calm 1.25 Fog/Mist BKN002 61 60.4 98% 30.37 0.0
21 04:05 Calm 7.00 Fair CLR 61.5 60.6 97% 30.37 0.0
21 03:45 Calm 7.00 Fair CLR 61.7 60.6 96% 30.38 0.0
21 03:25 Calm 5.00 Fog/Mist CLR 61.3 60.4 97% 30.38 0.0
21 03:05 Calm 10.00 Fair CLR 62.1 60.8 96% 30.38 0.0
21 02:45 Calm 10.00 Fair CLR 62.6 61 94% 30.38 0.0
21 02:25 SE 6 3.50 Light Rain Fog/Mist CLR 63.3 61.3 93% 30.39 0.0
21 02:05 SE 5 7.00 Light Rain Fog/Mist CLR 63.1 61.3 94% 30.39 0.0
21 01:45 SE 3 10.00 Fair CLR 63.3 61.3 76.1 63.1 93% 30.39 0.0
21 01:25 Calm 10.00 Fair CLR 64 61.5 92% 30.39 0.0
21 01:05 Calm 7.00 Fair CLR 64.8 61.5 89% 30.4 0.0
21 00:45 SE 3 5.00 Light Drizzle Fog/Mist CLR 65.1 61.9 89% 30.4 0.0
21 00:25 SE 5 7.00 Light Drizzle Fog/Mist SCT055 65.5 61.9 88% 30.39 0.0
21 00:05 SE 6 5.00 Light Drizzle Fog/Mist SCT055 66 61.9 87% 30.4 0.0
20 23:45 SE 6 2.50 Light Drizzle Fog/Mist CLR 66.4 62.2 87% 30.4 0.0
20 23:25 SE 7 2.00 Fair with Haze CLR 67.1 62.2 84% 30.4 0.0
20 23:05 SE 7 1.25 Sky Obscured with Haze VV007 67.8 62.2 82% 30.4 0.0
20 22:45 SE 6 1.00 Sky Obscured with Haze VV007 68.5 62.2 80% 30.39 0.0
20 22:25 SE 8 1.25 Sky Obscured with Haze VV007 69.8 62.1 77% 30.39 0.0
20 22:05 SE 3 1.75 Sky Obscured with Haze VV007 70.9 61.9 73% 30.38 0.0
20 21:45 SE 5 1.75 Sky Obscured with Haze VV007 71.2 61.7 72% 30.38 0.0
20 21:25 SE 8 10.00 Fair CLR 72.9 61.5 68% 30.37 0.0
20 21:05 S 7 10.00 Fair CLR 73.4 60.8 65% 30.37 0.0
20 20:45 SE 6 10.00 Fair CLR 74.7 60.3 61% 30.37 0.0
20 20:25 S 6 10.00 Partly Cloudy SCT049 75.7 59.9 58% 78 30.37 0.0
20 20:05 S 7 10.00 Fair CLR 75.9 59.9 58% 78 30.37 0.0
20 19:45 S 3 10.00 Partly Cloudy SCT049 76.5 60.4 81.1 76.1 58% 78 30.37 0.0
20 19:25 S 6 10.00 Partly Cloudy SCT049 76.5 60.4 58% 78 30.37 0.0
20 19:05 SE 8 10.00 Partly Cloudy SCT049 77.9 61.3 57% 79 30.37 0.0
20 18:45 SE 3 10.00 Fair CLR 78.4 61 55% 80 30.37 0.0
20 18:25 SE 7 10.00 Fair CLR 78.3 60.3 54% 80 30.37 0.0
20 18:05 SE 3 10.00 Fair CLR 79 61.5 55% 80 30.37 0.0
20 17:45 SE 8 10.00 Fair CLR 79.2 60.6 53% 80 30.37 0.0
20 17:25 SE 7 10.00 Fair CLR 79.7 61 53% 81 30.37 0.0
20 17:05 SE 6 10.00 Partly Cloudy SCT050 SCT065 80.4 61 52% 81 30.38 0.0
20 16:45 SE 9 10.00 Partly Cloudy SCT050 SCT065 80.4 60.6 51% 81 30.38 0.0
20 16:25 SE 5 10.00 Fair CLR 80.2 60.8 52% 81 30.38 0.0
20 16:05 SE 6 10.00 Partly Cloudy SCT049 79.5 59.9 51% 80 30.39 0.0
20 15:45 SE 7 10.00 Partly Cloudy SCT049 79.7 60.1 51% 81 30.39 0.0
20 15:25 S 6 10.00 Fair CLR 80.1 61.7 54% 81 30.39 0.0
20 15:05 SE 3 10.00 Partly Cloudy SCT044 79.2 60.6 53% 80 30.4 0.0
20 14:45 SE 7 10.00 Mostly Cloudy BKN044 BKN050 80.1 61.7 54% 81 30.41 0.0
20 14:25 S 5 10.00 Mostly Cloudy BKN044 BKN055 79.3 63 57% 81 30.41 0.0
20 14:05 W 5 10.00 Partly Cloudy SCT040 SCT055 SCT120 78.6 63.3 60% 80 30.42 0.0
20 13:45 Calm 10.00 Mostly Cloudy BKN040 BKN120 77.9 63.1 79.2 61.2 61% 80 30.42 0.0
20 13:25 S 5 10.00 Mostly Cloudy BKN038 BKN047 76.5 61.7 60% 78 30.43 0.0
20 13:05 Calm 10.00 Mostly Cloudy BKN042 BKN047 77.4 61.3 58% 79 30.43 0.0
20 12:45 S 6 10.00 Mostly Cloudy BKN039 BKN045 77.2 62.1 60% 79 30.44 0.0
20 12:25 SW 3 10.00 Mostly Cloudy BKN036 BKN043 75.9 61.5 61% 78 30.44 0.0
20 12:05 Calm 10.00 Fair CLR 76.8 62.1 60% 79 30.44 0.0
20 11:45 Calm 10.00 Fair CLR 76.1 62.1 62% 78 30.45 0.0
20 11:25 Calm 10.00 Fair CLR 75.2 62.6 65% 77 30.45 0.0
20 11:05 Calm 10.00 Fair CLR 73.6 61.9 67% 30.45 0.0
20 10:45 Calm 10.00 Fair CLR 72.7 63.1 72% 30.45 0.0
20 10:25 Calm 10.00 Fair CLR 71.4 63 75% 30.45 0.0
20 10:05 Calm 10.00 Fair CLR 69.8 62.4 78% 30.44 0.0
20 09:45 Calm 10.00 Fair CLR 68.2 61.9 80% 30.44 0.0
20 09:25 Calm 10.00 Fair CLR 67.6 62.2 83% 30.45 0.0
20 09:05 Calm 10.00 Fair CLR 65.5 61 85% 30.45 0.0
20 08:45 Calm 10.00 Fair CLR 64.4 60.1 86% 30.45 0.0
20 08:25 Calm 10.00 Fair CLR 63.3 59.9 89% 30.45 0.0
20 08:05 Calm 10.00 Fair CLR 61.5 59.2 92% 30.44 0.0
20 07:45 Calm 10.00 Fair CLR 61 58.8 63.7 58.6 93% 30.44 0.0
20 07:25 Calm 10.00 Fair CLR 60.1 58.5 94% 30.44 0.0
20 07:05 Calm 10.00 Fair CLR 59.4 58.3 96% 30.43 0.0
20 06:45 Calm 10.00 Fair CLR 59.2 58.1 96% 30.43 0.0
20 06:25 S 5 10.00 Fair CLR 59.2 57.9 96% 30.43 0.0
20 06:00 Calm 10.00 Partly Cloudy SCT002 59.9 58.5 95% 30.43 0.0
20 05:45 Calm 4.00 Fog/Mist SCT002 58.6 58.1 98% 30.42 0.0
20 05:25 SE 5 10.00 Partly Cloudy SCT034 SCT040 59.5 58.3 96% 30.42 0.0
20 05:05 Calm 7.00 Light Drizzle Fog/Mist SCT033 BKN040 60.8 58.5 92% 30.42 0.0
20 04:45 SE 6 1.50 Light Rain Fog/Mist VV007 60.3 58.8 95% 30.42 0.0
20 04:25 SE 3 7.00 Fog/Mist CLR 60.1 58.8 96% 30.42 0.0
20 04:05 Calm 10.00 Fair CLR 60.6 58.8 94% 30.41 0.0
20 03:45 Calm 4.00 Fog/Mist CLR 61.3 59 92% 30.41 0.0
20 03:25 Calm 10.00 Fair CLR 61.7 59.4 92% 30.41 0.0
20 03:05 Calm 10.00 Fair CLR 61.9 59.2 91% 30.4 0.0
20 02:45 Calm 10.00 Fair CLR 61.7 59.4 92% 30.39 0.0
20 02:25 Calm 10.00 Fair CLR 63 59.4 88% 30.39 0.0
20 02:05 SE 3 10.00 Fair CLR 63.5 59 85% 30.39 0.0
20 01:45 Calm 10.00 Fair CLR 63.5 59.5 72.7 63.3 87% 30.4 0.0
20 01:25 Calm 10.00 Fair CLR 64.2 59.4 84% 30.41 0.0
20 01:05 Calm 10.00 Fair CLR 64.8 59.2 82% 30.41 0.0
20 00:45 Calm 10.00 Fair CLR 64.2 59.2 84% 30.41 0.0
20 00:25 Calm 10.00 Fair CLR 64.9 59.4 82% 30.41 0.0
20 00:05 SE 3 10.00 Fair CLR 65.1 59.4 82% 30.41 0.0
19 23:45 SE 5 10.00 Fair CLR 65.1 59.9 83% 30.41 0.0
19 23:25 Calm 10.00 Fair CLR 65.8 60.1 82% 30.42 0.0
19 23:05 SE 5 5.00 Fair with Haze CLR 67.6 59.4 75% 30.42 0.0
19 22:45 Calm 7.00 Fair with Haze CLR 68.7 58.8 71% 30.42 0.0
19 22:25 S 6 5.00 Fair with Haze CLR 69.1 59.2 71% 30.41 0.0
19 22:05 SE 3 10.00 Fair CLR 69.4 59 70% 30.41 0.0
19 21:45 Calm 10.00 Fair CLR 69.6 59 69% 30.39 0.0
19 21:25 SE 9 10.00 Fair CLR 70 58.8 68% 30.39 0.0
19 21:05 SE 3 10.00 Fair CLR 70.3 58.5 66% 30.38 0.0
19 20:45 SE 5 10.00 Fair CLR 70.7 58.8 66% 30.38 0.0
19 20:25 S 6 10.00 Fair CLR 71.4 59 65% 30.38 0.0
19 20:00 SE 8 10.00 Fair CLR 72.7 59.4 63% 30.38 0.0
19 19:40 SE 10 10.00 Fair CLR 72.7 59.4 63% 30.38 0.0
19 19:25 SE 7 10.00 Fair CLR 72.9 59.2 62% 30.38 0.0
19 19:05 SE 5 10.00 Fair CLR 73.6 59.2 61% 30.38 0.0
19 18:45 S 7 10.00 Fair CLR 74.8 58.5 57% 30.38 0.0
19 18:25 S 10 10.00 Fair CLR 74.3 57.9 57% 30.38 0.0
19 18:05 S 10 10.00 Fair CLR 74.1 57.9 57% 30.37 0.0
19 17:45 S 10 G 17 10.00 Fair CLR 75 57.7 55% 78 30.37 0.0
19 17:25 SE 10 G 22 10.00 Fair CLR 77 57.9 52% 79 30.37 0.0
19 17:05 SE 8 10.00 Fair CLR 77.7 59.2 53% 79 30.38 0.0
19 16:45 S 10 10.00 Fair CLR 78.1 58.8 52% 79 30.38 0.0
19 16:25 Calm 10.00 Fair CLR 77 58.5 53% 79 30.38 0.0
19 16:05 SE 7 10.00 Fair CLR 77.7 59.2 53% 79 30.38 0.0
19 15:45 SE 8 10.00 Fair CLR 76.6 59.4 55% 78 30.38 0.0
19 15:25 S 10 10.00 Fair CLR 76.8 58.3 53% 79 30.38 0.0
19 15:05 S 14 10.00 Fair CLR 78.3 57.9 50% 79 30.38 0.0
19 14:45 S 13 G 21 10.00 Fair CLR 77.2 57.4 51% 79 30.39 0.0
19 14:25 SE 7 G 20 7.00 Fair CLR 77.4 58.6 53% 79 30.39 0.0
19 14:05 S 9 10.00 Fair CLR 76.5 57.9 53% 78 30.39 0.0
19 13:45 SE 7 10.00 Fair CLR 77 59.9 77.7 64.2 56% 79 30.4 0.0
19 13:25 SE 8 10.00 Fair CLR 74.8 58.6 57% 30.4 0.0
Date Time (edt) Wind (mph) Vis. (mi.) Weather Sky Cond. Air Dwpt Max. Min. Relative Humidity Wind Chill (°F) Heat Index (°F) altimeter (in) sea level (mb) 1 hr 3 hr 6 hr
6 hour
Temperature (ºF) Pressure Precipitation (in)